Regional Weather Roundup
Issued by NWS

Home | Current Version | Previous Version | Text Only | Print | Product List | Glossary On
Versions: 1 2 3 4 5 6 7 8 9 10 11 12 13 14 15 16 17 18 19 20 21 22 23 24 25 26 27 28 29 30 31 32 33 34 35 36 37 38 39 40 41 42 43 44 45 46 47 48 49 50
000
ASUS42 KTBW 091216
RWRFL
FLORIDA REGIONAL WEATHER ROUNDUP
NATIONAL WEATHER SERVICE TAMPA BAY RUSKIN FL
700 AM EST TUE FEB 09 2016

NOTE: "FAIR" INDICATES FEW OR NO CLOUDS BELOW 12,000 FEET WITH NO
SIGNIFICANT WEATHER AND/OR OBSTRUCTIONS TO VISIBILITY.


FLZ001>010-012>015-112-114-115-091300-
PANHANDLE FLORIDA

CITY           SKY/WX    TMP DP  RH WIND       PRES   REMARKS
PENSACOLA      CLEAR     39  25  57 W7        30.06R WCI  34
MILTON NAS     CLEAR     32  22  66 W7        30.05R WCI  26
CRESTVIEW      CLEAR     35  21  56 W7        30.05S WCI  29
DUKE FIELD     FAIR      36  20  52 W6        30.03R WCI  31
VALPARAISO     PTCLDY    34  21  60 NW5       30.04R WCI  29
MARY ESTHER    CLEAR     40  18  41 W6        30.05R WCI  36
TRI COUNTY     FAIR      36  23  59 W6        30.04R WCI  31
PANAMA CITY    FAIR      34  25  69 CALM      30.03S
TYNDALL AFB    CLEAR     43  23  44 NW16      30.04S WCI  35
APALACHICOLA   PTCLDY    41  25  53 NW7       30.03R WCI  36

STATION/POSITION SKY/WX   TEMP    WIND        PRES    WAVE   SWELL
                          AIR SEA DIR/SP/G            HT/PER HT/PER
                          (F)     (DEG/KT/KT) (MB)    (FT/S) (FT/S)
30.1N   87.6W              50 63  290/ 19/ 25 1017.5R   3/ 4   2/ 9
28.8N   86.0W              56 70  290/ 25/ 31 1017.5R  12/ 9   8/ 9
PANAMA CITY BEAC           46 57  310/ 20/ 23 1017.2R
CAPE SAN BLAS    NOT AVBL
TOWER C          NOT AVBL
28.5N   84.5W              57 67  290/ 23/ 29 1016.5R  14/10  11/10

$$
FLZ011-016>038-118-127-128-134-139-239-091300-
NORTH FLORIDA

CITY           SKY/WX    TMP DP  RH WIND       PRES   REMARKS
MARIANNA       CLEAR     37  23  56 W9        30.01R WCI  30
TALLAHASSEE    CLEAR     38  22  52 W8        30.02S WCI  32
PERRY          CLEAR     41  23  50 SW10      30.03S WCI  34
LIVE OAK         N/A     39  27  60 W3        30.03R
CROSS CITY       N/A     43  23  45 NW9       30.03R WCI  38
LAKE CITY      FAIR      37  25  60 W9        30.00S WCI  31
GAINESVILLE    CLEAR     41  23  48 W9        30.02R WCI  35
WILLISTON      FAIR      43  28  56 CALM      30.04R
KEYSTONE HEIGH   N/A     41  21  45 W7        30.01R WCI  36
PALATKA        FAIR      41  23  48 W9G18     30.01R WCI  35
MAYPORT NAS    PTCLDY    44  22  41 W18G26    29.97R WCI  36
JACKSONVILLE   PTCLDY    41  23  48 W20       29.98R WCI  32
JAX NAS        PTCLDY    44  19  36 W17G25    30.00R WCI  36
JAX CRAIG      PTCLDY    44  21  40 W16G24    29.99R WCI  37
JAX CECIL      CLEAR     41  19  42 W12       30.00R WCI  34
FERNANDINA BEA FAIR      45  23  42 W14G21    29.95R WCI  38
ST AUGUSTINE   CLEAR     44  21  40 W15G24    30.00R WCI  37
PALM COAST     SUNNY     45  27  49 NW12      30.00R WCI  39

STATION/POSITION SKY/WX   TEMP    WIND        PRES    WAVE   SWELL
                          AIR SEA DIR/SP/G            HT/PER HT/PER
                          (F)     (DEG/KT/KT) (MB)    (FT/S) (FT/S)
SHELL POINT                43     280/ 11/ 15 1015.7
KEATON BEACH               47     300/ 24/ 31 1016.7R
CEDAR KEY                  49     310/ 14/ 21 1017.4R
FERNANDINA                 43 54  250/  8/ 12 1013.4R
30.7N   81.3W                 56                N/A     3/18   2/18
MAYPORT                    46 55  270/ 17/ 23 1013.5R
31.4N   80.9W              45 54  280/ 21/ 25 1012.0R   4/ 5
ST AUGUSTINE               44 56  280/  9/ 13 1016.5R

$$
FLZ040-043>046-052-053-057-058-063-144-091300-
INTERIOR CENTRAL FLORIDA

CITY           SKY/WX    TMP DP  RH WIND       PRES   REMARKS
OCALA          MOCLDY    45  21  39 NW6       30.03R WCI  41
THE VILLAGES     N/A     46  27  46 W8G15     29.94R WCI  42
LEESBURG       CLOUDY    48  26  42 NW14G24   30.04R WCI  42
SANFORD        CLOUDY    49  25  39 NW17      30.01R WCI  43
ORLANDO EXEC   CLOUDY    51  28  41 NW16G22   30.02R
ORLANDO INTL   CLOUDY    50  28  42 NW17G24   30.02R WCI  44
KISSIMMEE      CLOUDY    52  34  50 NW21G28   30.02
WINTER HAVEN   CLOUDY    50  32  50 NW15G24   30.05R WCI  45
LAKELAND       MOCLDY    50  34  53 NW21G28   30.04R WCI  43
BARTOW         MOCLDY    48  32  53 NW13G21   30.05R WCI  43
OKEECHOBEE     PTCLDY    50  41  71 NW8       30.03R

$$
FLZ041-047-054-059-064-141-147-091300-
EAST CENTRAL FLORIDA

CITY           SKY/WX    TMP DP  RH WIND       PRES   REMARKS
ORMOND BEACH   PTCLDY    46  28  49 NW9       29.99  WCI  42
DAYTONA BEACH  MOCLDY    48  25  40 W12G31    30.00R WCI  43
DELAND           N/A     46  23  39 W14G22    30.03R WCI  40
NEW SMYRNA BEA PTCLDY    50  27  40 W17G35    29.98  WCI  44
JFK SPACE CTR  CLOUDY    51  27  38 NW16G22   29.98R
TITUSVILLE     MOCLDY    50  23  34 W32       30.00  WCI  42
CAPE CANAVERAL CLOUDY    52  28  40 W15G23    29.98R
PATRICK AFB    PTCLDY    52  29  41 W18       29.99R
MELBOURNE      PTCLDY    49  31  49 W13       30.00R WCI  44
VERO BEACH     MOCLDY    51  35  54 W10       30.01R
FT PIERCE      MOCLDY    50  41  71 W10       30.00R
STUART         MOCLDY    57  37  47 NW12G23   30.02R

STATION/POSITION SKY/WX   TEMP    WIND        PRES    WAVE   SWELL
                          AIR SEA DIR/SP/G            HT/PER HT/PER
                          (F)     (DEG/KT/KT) (MB)    (FT/S) (FT/S)
28.5N   80.2W              56 71  290/ 25/ 29 1013.8R
28.9N   78.5W              62 72              1010.8R
TRIDENT PIER               53 64  270/  8/ 11 1014.3R
28.4N   80.5W                 64                N/A     2/15   2/15
27.5N   80.2W                 71                N/A     4/14   2/14

$$
FLZ050-056-061-142-242-148-248-149-249-151-251-155-255-
160-260-091300-
WEST CENTRAL FLORIDA

CITY           SKY/WX    TMP DP  RH WIND       PRES   REMARKS
CRYSTAL RIVER  CLOUDY    48  30  49 NW9       30.04R WCI  44
INVERNESS      CLOUDY    46  28  49 NW3       30.05R
BROOKSVILLE    CLOUDY    49  28  44 NW10      30.05R WCI  45
ZEPHYRHILLS    CLOUDY    49  29  47 NW10      30.06R WCI  44
CLEARWATER AIR CLOUDY    52  36  54 NW12G17   30.05R
ST PETE CLEARW CLOUDY    52  37  56 NW17G23   30.06R
TAMPA INTL     CLOUDY    51  35  54 NW12      30.06R
TAMPA EXEC     CLOUDY    54  34  47 NW8       30.06R
PLANT CITY     CLOUDY    52  36  54 NW12G20   30.07R
MACDILL AFB    CLOUDY    52  39  61 NW12G18   30.05R
PETER O KNIGHT CLOUDY    54  37  54 N7G16     30.06R
ST PETERSBURG  CLOUDY    54  39  57 N12       30.04R
SARASOTA       CLOUDY    55  38  52 NW17G25   30.04R
VENICE         CLOUDY    57  43  58 NW21G28   30.06R

STATION/POSITION SKY/WX   TEMP    WIND        PRES    WAVE   SWELL
                          AIR SEA DIR/SP/G            HT/PER HT/PER
                          (F)     (DEG/KT/KT) (MB)    (FT/S) (FT/S)
CEDAR KEY                  49     310/ 14/ 21 1017.4R
28.5N   84.5W              57 67  290/ 23/ 29 1016.5R  14/10  11/10
27.3N   84.2W                 71                N/A    15/10   7/11
CLEARWATER BEACH           54 57  330/ 24/ 27 1017.1R
MIDDLE TAMPA BAY           55     340/ 17/ 20 1017.0R
VENICE                     58 61  330/ 26/ 29 1017.3R

$$
FLZ066-069-070-075>078-162-262-165-265-091300-
SOUTHWEST FLORIDA AND KEYS

CITY           SKY/WX    TMP DP  RH WIND       PRES   REMARKS
PUNTA GORDA    CLOUDY    55  43  63 NW14      30.06R
FT MYERS       CLOUDY    57  44  62 NW14      30.04R
SOUTHWEST INTL CLOUDY    60  43  53 NW15G23   30.04R
NAPLES         MOCLDY    62  46  55 NW18G32   30.04R
MARCO ISLAND   PTSUNNY   61  43  51 NW20G28   30.04R
MARATHON       CLOUDY    65  56  72 NW13G22   30.06R
KEY WEST NAS   MOCLDY    66  56  70 NW18G29   30.07R
KEY WEST INTL  CLOUDY    65  60  84 NW16G24   30.07R

STATION/POSITION SKY/WX   TEMP    WIND        PRES    WAVE   SWELL
                          AIR SEA DIR/SP/G            HT/PER HT/PER
                          (F)     (DEG/KT/KT) (MB)    (FT/S) (FT/S)
VENICE                     58 61  330/ 26/ 29 1017.3R
NAPLES                        64              1016.3R
26.0N   85.6W              65 79  300/ 23/ 29 1019.2R  12/10   8/10
DRY TORTUGAS     NOT AVBL
SAND KEY                   67     340/ 25/ 29 1018.5R
LONG KEY                   65 64  330/ 17/ 19 1018.4R
MOLASSES REEF              64 75  320/ 20/ 22 1017.1R

$$
FLZ067-068-071>074-168-172>174-091300-
SOUTHEAST FLORIDA

CITY           SKY/WX    TMP DP  RH WIND       PRES   REMARKS
W PALM BEACH   MOCLDY    58  44  60 W14       30.01R
BOCA RATON     CLOUDY    59  46  63 NW14      30.01
FT LAUDER-EXEC PTCLDY    59  49  69 W7        30.02R
FT LAUDERDALE  MOCLDY    61  49  64 NW12G23   30.02R
POMPANO BEACH  MOCLDY    59  50  72 W14       30.02R
PEMBROKE PINES CLOUDY    60  50  69 NW9       30.04R
OPA LOCKA      CLOUDY    62  48  60 W12       30.03R
MIAMI          MOCLDY    62  50  64 NW10G18   30.03R
WEST KENDALL   MOCLDY    59  52  77 W14       30.04R
HOMESTEAD      CLEAR     61  52  71 W12       30.03R

STATION/POSITION SKY/WX   TEMP    WIND        PRES    WAVE   SWELL
                          AIR SEA DIR/SP/G            HT/PERC1F1M1C2F2M2C3F3C4F4M3C5F5M4C6F6M5C7F7M6C8!


USA.gov is the U.S. government's official web portal to all federal, state and local government web resources and services.